This is the latest recevied weather packets stored in our database for station/object N4HAC. If no packets are shown the sender has not sent any weather packets the latest 10 day(s).
| Time | Temp. | Humidity | Pressure | Rain* | Wind** | Luminosity | Snow |
|---|---|---|---|---|---|---|---|
| 1777750411 | 13.33° C | 42% | 1006.8 hPa | 0 mm | - | 849 W/m² | - |
| 1777750106 | 13.33° C | 48% | 1007 hPa | 0 mm | - | 902 W/m² | - |
| 1777749804 | 13.33° C | 42% | 1007 hPa | 0 mm | - | 310 W/m² | - |
| 1777749501 | 13.33° C | 42% | 1007.2 hPa | 0 mm | - | 324 W/m² | - |
| 1777749199 | 13.33° C | 44% | 1007.2 hPa | 0 mm | - | 273 W/m² | - |
| 1777748896 | 13.33° C | 41% | 1007.3 hPa | 0 mm | - | 456 W/m² | - |
| 1777748593 | 12.78° C | 44% | 1007.1 hPa | 0 mm | - | 343 W/m² | - |
| 1777748289 | 13.89° C | 39% | 1007.7 hPa | 0 mm | - | 284 W/m² | - |
| 1777747984 | 13.33° C | 41% | 1007.6 hPa | 0 mm | - | 979 W/m² | - |
| 1777747682 | 13.33° C | 42% | 1007.7 hPa | 0 mm | - | 340 W/m² | - |
| 1777747377 | 13.33° C | 40% | 1007.8 hPa | 0 mm | - | 603 W/m² | - |
| 1777747074 | 13.33° C | 44% | 1007.7 hPa | 0 mm | - | 693 W/m² | - |
| 1777746770 | 13.89° C | 43% | 1007.8 hPa | 0 mm | - | 576 W/m² | - |
| 1777746465 | 13.33° C | 43% | 1007.8 hPa | 0 mm | - | 569 W/m² | - |
| 1777746161 | 13.33° C | 41% | 1007.8 hPa | 0 mm | - | 731 W/m² | - |
| 1777745858 | 12.78° C | 44% | 1007.8 hPa | 0 mm | - | 364 W/m² | - |
| 1777745557 | 12.78° C | 43% | 1008 hPa | 0 mm | - | 281 W/m² | - |
| 1777745254 | 13.89° C | 42% | 1007.9 hPa | 0 mm | - | 570 W/m² | - |
| 1777744952 | 13.89° C | 41% | 1008.2 hPa | 0 mm | - | 937 W/m² | - |
| 1777744651 | 12.22° C | 42% | 1008.4 hPa | 0 mm | - | 406 W/m² | - |
| 1777744346 | 13.89° C | 42% | 1008.2 hPa | 0 mm | - | 462 W/m² | - |
| 1777744044 | 12.78° C | 44% | 1008.4 hPa | 0 mm | - | 434 W/m² | - |
| 1777743741 | 13.89° C | 41% | 1008.2 hPa | 0 mm | - | 878 W/m² | - |
| 1777743438 | 12.78° C | 40% | 1008.4 hPa | 0 mm | - | 1054 W/m² | - |
| 1777743135 | 12.78° C | 43% | 1008.6 hPa | 0 mm | - | 428 W/m² | - |
* Rain latest hour (hover to see other rain measurements)
** Current wind speed in m/s (hover to see current wind gust speed)